Location: Oberkirch
(48.5323°N, 8.0787°E)
Time: 17:10:21
(UTC+00:00)

Cosmos 304 Rocket - Pass Details

Date: 08 November 2025
Orbit: 668 x 677 km, 74.0° (Epoch: 09 December)

Event Time Altitude Azimuth Distance (km) Brightness Sun altitude
Rises 05:12:21 0° 339° (NNW) 3,037 6.8 -12.2°
Reaches altitude 10° 05:14:41 10° 343° (NNW) 2,120 6.0 -11.9°
Maximum altitude 05:19:25 62° 64° (ENE) 762 4.2 -11.1°
Drops below altitude 10° 05:24:07 10° 146° (SE) 2,110 7.0 -10.3°
Sets 05:26:26 0° 149° (SSE) 3,021 7.8 -10.0°
